sat.trackr.live / text

‹ back to catalog

SAUDISAT 5A

NORAD 43831 · 2018-102A

PAYLOAD ACTIVE UNKNOWN

§ Identity

Operator
Country
SAUD
Launch date
2018-12-07
Launch site
JSC
Launch vehicle
Mass (kg)
RCS (m²)

Purposes: earth_obs

External: N2YO · Heavens-Above · Gunter

§ Orbital elements

Epoch: 2026-09-20T05:20:33.533376Z

Period
94.19 min
Inclination
97.2968°
Eccentricity
0.0010267
Mean motion
15.28867146 rev/d
Perigee alt
472.2 km
Apogee alt
486.2 km
Semi-major
6,857.3 km
B*
1.2872e-4
RAAN
322.9723°
Arg perigee
148.4308°
Mean anomaly
211.7551°
Rev number
43,019

§ Raw data

SAUDISAT 5A1 43831U 18102A   26263.22261034  .00003541  00000+0  12872-3 0  99952 43831  97.2968 322.9723 0010267 148.4308 211.7551 15.28867146430191

JSON: /api/v1/satellites/43831 · /tle

For live sub-satellite position, see the globe view (requires WebGL).

§ Visibility from observer

Set your observer location to see the next 7 days of passes ≥ 10°. The values pass through the URL so the page stays shareable.

No JS? Fill the form by hand. The geolocation button needs JavaScript.

§ Radio — SatNOGS DB

ModeDescriptionDownlinkUplink
FM 401.35 401.350 MHz
FM 401.85 401.850 MHz

2 transmitters · refreshed weekly from db.satnogs.org